Weather History for Catania, Italy

Change the Weather History Date:

Friday, June 28, 2013

  Actual Average Record
Temperature  
Mean Temperature 68 °F -  
Max Temperature 78 °F 89 °F 95 °F (2003)
Min Temperature 57 °F 65 °F 57 °F (2013)
Cooling Degree Days 2    
Growing Degree Days 18 (Base 50)    
Moisture  
Dew Point 54 °F    
Average Humidity 58    
Maximum Humidity 78    
Minimum Humidity 28    
Precipitation  
Precipitation 0.00 in 0.01 in - ()
Sea Level Pressure  
Sea Level Pressure 30.04 in    
Wind  
Wind Speed 6 mph ()    
Max Wind Speed 15 mph    
Max Gust Speed -    
Visibility 6.2 miles    
Events      
Averages and records for this station are not official NWS values.
T = Trace of Precipitation, MM = Missing Value Source: Averaged Metar Reports

Daily Weather History Graph

Daily Weather History Graph

Search for Another Location

Airport:

Trip Planner

Search our weather history database for the weather conditions in past years. The results will help you decide how hot, cold, wet, or windy it might be!

Date:

Astronomy

Jun. 28, 2013 Rise Set
Actual Time 5:41 AM CEST 8:24 PM CEST
Civil Twilight 5:10 AM CEST 8:55 PM CEST
Nautical Twilight 4:31 AM CEST 9:34 PM CEST
Astronomical Twilight 3:47 AM CEST 10:18 PM CEST
Moon 11:52 PM CEST (6/28) 11:22 AM CEST (6/28)
Length of Visible Light 15h 45m
Length of Day
14h 43m
Waning Gibbous, 69% of the Moon is Illuminated
Jun 28
Waning Gibbous
Jun 30
Last Quarter
Jul 8
New
Jul 16
First Quarter
Jul 22
Full

Hourly Weather History & Observations

Time (CEST) Temp. Dew Point Humidity Pressure Visibility Wind Dir Wind Speed Gust Speed Precip Events Conditions
12:20 AM 68.0 °F 53.6 °F 60% 30.06 in - West 5.8 mph - N/A   Clear
12:50 AM 66.2 °F 53.6 °F 64% 30.06 in - West 5.8 mph - N/A   Clear
1:20 AM 66.2 °F 53.6 °F 64% 30.06 in - West 5.8 mph - N/A   Clear
1:50 AM 66.2 °F 51.8 °F 60% 30.06 in - West 4.6 mph - N/A   Clear
2:20 AM 64.4 °F 51.8 °F 64% 30.06 in - West 4.6 mph - N/A   Clear
2:50 AM 62.6 °F 51.8 °F 68% 30.06 in - West 4.6 mph - N/A   Clear
3:50 AM 62.6 °F 51.8 °F 68% 30.06 in - SSW 5.8 mph - N/A   Clear
4:20 AM 59.0 °F 46.4 °F 63% 30.04 in - SW 3.5 mph - N/A   Clear
4:50 AM 57.2 °F 46.4 °F 67% 30.04 in - Variable 2.3 mph - N/A   Clear
5:20 AM 57.2 °F 48.2 °F 72% 30.04 in - WSW 4.6 mph - N/A   Clear
5:50 AM 57.2 °F 48.2 °F 72% 30.06 in - WSW 3.5 mph - N/A   Clear
6:20 AM 59.0 °F 48.2 °F 67% 30.06 in - SW 6.9 mph - N/A   Clear
6:50 AM 62.6 °F 51.8 °F 68% 30.06 in - WSW 4.6 mph - N/A   Clear
7:20 AM 64.4 °F 50.0 °F 59% 30.06 in - WSW 5.8 mph - N/A   Clear
7:50 AM 69.8 °F 51.8 °F 53% 30.06 in - West 4.6 mph - N/A   Clear
8:20 AM 71.6 °F 50.0 °F 46% 30.06 in - Variable 1.2 mph - N/A   Clear
8:50 AM 73.4 °F 51.8 °F 47% 30.06 in - Variable 2.3 mph - N/A   Clear
9:20 AM 75.2 °F 50.0 °F 41% 30.06 in - Variable 2.3 mph - N/A   Clear
9:50 AM 75.2 °F 51.8 °F 44% 30.06 in - East 5.8 mph - N/A   Clear
10:20 AM 77.0 °F 46.4 °F 34% 30.06 in - Variable 3.5 mph - N/A   Clear
10:50 AM 78.8 °F 42.8 °F 28% 30.06 in - West 6.9 mph - N/A   Clear
11:20 AM 77.0 °F 55.4 °F 47% 30.04 in - East 9.2 mph - N/A   Clear
11:50 AM 77.0 °F 53.6 °F 44% 30.04 in - East 11.5 mph - N/A   Clear
12:20 PM 77.0 °F 55.4 °F 47% 30.04 in - East 11.5 mph - N/A   Clear
12:50 PM 77.0 °F 53.6 °F 44% 30.04 in - East 11.5 mph - N/A   Clear
1:20 PM 75.2 °F 53.6 °F 47% 30.04 in - East 12.7 mph - N/A   Clear
1:50 PM 77.0 °F 55.4 °F 47% 30.04 in - East 12.7 mph - N/A   Clear
2:50 PM 77.0 °F 53.6 °F 44% 30.04 in 6.2 mi ENE 15.0 mph - N/A   Partly Cloudy
3:20 PM 77.0 °F 53.6 °F 44% 30.04 in 6.2 mi East 15.0 mph - N/A   Partly Cloudy
3:50 PM 77.0 °F 55.4 °F 47% 30.04 in 6.2 mi East 15.0 mph - N/A   Partly Cloudy
4:20 PM 77.0 °F 55.4 °F 47% 30.01 in 6.2 mi East 15.0 mph - N/A   Partly Cloudy
4:50 PM 75.2 °F 55.4 °F 50% 30.01 in 6.2 mi East 15.0 mph - N/A   Partly Cloudy
5:20 PM 75.2 °F 57.2 °F 53% 30.01 in 6.2 mi East 15.0 mph - N/A   Partly Cloudy
5:50 PM 75.2 °F 57.2 °F 53% 30.01 in 6.2 mi ENE 13.8 mph - N/A   Partly Cloudy
6:20 PM 73.4 °F 59.0 °F 61% 30.01 in 6.2 mi ENE 11.5 mph - N/A   Partly Cloudy
6:50 PM 73.4 °F 59.0 °F 61% 30.01 in 6.2 mi East 9.2 mph - N/A   Partly Cloudy
7:20 PM 73.4 °F 59.0 °F 61% 30.01 in 6.2 mi ENE 9.2 mph - N/A   Partly Cloudy
7:50 PM 71.6 °F 59.0 °F 64% 30.01 in 6.2 mi ENE 8.1 mph - N/A   Partly Cloudy
8:20 PM 71.6 °F 59.0 °F 64% 30.01 in - ENE 6.9 mph - N/A   Clear
8:50 PM 71.6 °F 59.0 °F 64% 30.01 in - ENE 8.1 mph - N/A   Clear
9:20 PM 69.8 °F 60.8 °F 73% 30.01 in - East 5.8 mph - N/A   Clear
9:50 PM 69.8 °F 60.8 °F 73% 30.01 in - ENE 3.5 mph - N/A   Clear
10:20 PM 68.0 °F 60.8 °F 78% 30.04 in - Variable 2.3 mph - N/A   Clear
10:50 PM 68.0 °F 60.8 °F 78% 30.04 in - Variable 2.3 mph - N/A   Clear
11:20 PM 66.2 °F 59.0 °F 78% 30.04 in - West 3.5 mph - N/A   Clear
11:50 PM 66.2 °F 59.0 °F 78% 30.04 in - WNW 5.8 mph - N/A   Clear